When you browse on this site, cookies collect data to enhance your experience and personalize the content and advertising you see.
Visit our Privacy Policy to learn more. By continuing to use the site, you agree to this use of cookies and data.
  • In Deutschland
  • Länderverzeichnis
  • Für 7 Tage
  • Wassertemperatur
  • Satellitenkarten
  • Wetterkarte
  • Widgets
  • user-avatar
    Anmelden

    Stündliche Wetter Ucar

    Heute, 14 Dezember, Freitag

    Zeit Temperatur Niederschläge Wind Luftdruck Luftfeuchtigkeit
    00:00 +9°C° 0 mm 3 m/S 766 mmHg 49%
    01:00 +9°C° 0 mm 2 m/S 767 mmHg 50%
    02:00 +8°C° 0 mm 2 m/S 767 mmHg 52%
    03:00 +8°C° 0 mm 2 m/S 767 mmHg 53%
    04:00 +7°C° 0 mm 2 m/S 767 mmHg 54%
    05:00 +7°C° 0 mm 2 m/S 768 mmHg 56%
    06:00 +7°C° 0 mm 1 m/S 768 mmHg 57%
    07:00 +8°C° 0 mm 1 m/S 768 mmHg 55%
    08:00 +9°C° 0 mm 1 m/S 768 mmHg 54%
    09:00 +9°C° 0 mm 1 m/S 768 mmHg 54%
    10:00 +9°C° 0 mm 2 m/S 768 mmHg 49%
    11:00 +10°C° 0 mm 2 m/S 768 mmHg 45%
    12:00 +12°C° 0 mm 2 m/S 768 mmHg 41%
    13:00 +12°C° 0 mm 2 m/S 768 mmHg 38%
    14:00 +12°C° 0 mm 2 m/S 767 mmHg 36%
    15:00 +11°C° 0 mm 3 m/S 767 mmHg 34%
    16:00 +10°C° 0 mm 3 m/S 767 mmHg 34%
    17:00 +10°C° 0 mm 3 m/S 768 mmHg 35%
    18:00 +9°C° 0 mm 3 m/S 768 mmHg 35%
    19:00 +9°C° 0 mm 3 m/S 768 mmHg 36%
    20:00 +8°C° 0 mm 3 m/S 768 mmHg 37%
    21:00 +8°C° 0 mm 3 m/S 768 mmHg 38%
    22:00 +7°C° 0 mm 3 m/S 768 mmHg 38%
    23:00 +7°C° 0 mm 3 m/S 769 mmHg 39%

    Morgen, 15 Dezember, Samstag

    Zeit Temperatur Niederschläge Wind Luftdruck Luftfeuchtigkeit
    00:00 +5°C° 0 mm 3 m/S 769 mmHg 39%
    01:00 +5°C° 0 mm 3 m/S 769 mmHg 39%
    02:00 +5°C° 0 mm 3 m/S 769 mmHg 40%
    03:00 +5°C° 0 mm 3 m/S 769 mmHg 40%
    04:00 +4°C° 0 mm 3 m/S 769 mmHg 41%
    05:00 +4°C° 0 mm 3 m/S 769 mmHg 41%
    06:00 +4°C° 0 mm 3 m/S 770 mmHg 42%
    07:00 +5°C° 0 mm 3 m/S 770 mmHg 41%
    08:00 +7°C° 0 mm 3 m/S 770 mmHg 39%
    09:00 +7°C° 0 mm 3 m/S 770 mmHg 38%
    10:00 +8°C° 0 mm 3 m/S 770 mmHg 36%
    11:00 +10°C° 0 mm 3 m/S 769 mmHg 34%
    12:00 +11°C° 0 mm 3 m/S 769 mmHg 32%
    13:00 +11°C° 0 mm 3 m/S 769 mmHg 32%
    14:00 +11°C° 0 mm 3 m/S 769 mmHg 32%
    15:00 +12°C° 0 mm 3 m/S 768 mmHg 32%
    16:00 +10°C° 0 mm 3 m/S 769 mmHg 35%
    17:00 +9°C° 0 mm 2 m/S 769 mmHg 39%
    18:00 +8°C° 0 mm 2 m/S 769 mmHg 42%
    19:00 +8°C° 0 mm 2 m/S 769 mmHg 43%
    20:00 +8°C° 0 mm 1 m/S 769 mmHg 44%
    21:00 +8°C° 0 mm 1 m/S 769 mmHg 45%
    22:00 +8°C° 0 mm 1 m/S 769 mmHg 46%
    23:00 +8°C° 0 mm 1 m/S 768 mmHg 48%

    übermorgen, 16 Dezember, Sonntag

    Zeit Temperatur Niederschläge Wind Luftdruck Luftfeuchtigkeit
    00:00 +7°C° 0 mm 1 m/S 768 mmHg 49%
    01:00 +7°C° 0 mm 1 m/S 768 mmHg 49%
    02:00 +7°C° 0 mm 1 m/S 768 mmHg 50%
    03:00 +7°C° 0 mm 1 m/S 767 mmHg 51%
    04:00 +7°C° 0 mm 1 m/S 767 mmHg 51%
    05:00 +5°C° 0 mm 2 m/S 767 mmHg 52%
    06:00 +5°C° 0 mm 2 m/S 767 mmHg 52%
    07:00 +7°C° 0 mm 1 m/S 767 mmHg 50%
    08:00 +8°C° 0 mm 1 m/S 768 mmHg 47%
    09:00 +9°C° 0 mm 1 m/S 768 mmHg 45%
    10:00 +10°C° 0 mm 1 m/S 768 mmHg 42%
    11:00 +11°C° 0 mm 1 m/S 768 mmHg 40%
    12:00 +12°C° 0 mm 1 m/S 767 mmHg 37%
    13:00 +12°C° 0 mm 1 m/S 767 mmHg 38%
    14:00 +12°C° 0 mm 2 m/S 767 mmHg 38%
    15:00 +13°C° 0 mm 2 m/S 767 mmHg 39%
    16:00 +12°C° 0 mm 2 m/S 768 mmHg 43%
    17:00 +9°C° 0 mm 2 m/S 768 mmHg 47%
    18:00 +8°C° 0 mm 2 m/S 769 mmHg 51%
    19:00 +8°C° 0 mm 2 m/S 769 mmHg 54%
    20:00 +8°C° 0 mm 2 m/S 769 mmHg 57%
    21:00 +7°C° 0 mm 2 m/S 769 mmHg 60%
    22:00 +7°C° 0 mm 2 m/S 769 mmHg 64%
    23:00 +7°C° 0 mm 2 m/S 769 mmHg 68%

    17 Dezember, Montag

    Zeit Temperatur Niederschläge Wind Luftdruck Luftfeuchtigkeit
    00:00 +8°C° 0 mm 1 m/S 769 mmHg 71%
    01:00 +7°C° 0 mm 1 m/S 769 mmHg 73%
    02:00 +7°C° 0 mm 1 m/S 769 mmHg 75%
    03:00 +7°C° 0 mm 1 m/S 769 mmHg 77%
    04:00 +7°C° 0 mm 1 m/S 769 mmHg 79%
    05:00 +6°C° 0 mm 1 m/S 769 mmHg 80%
    06:00 +6°C° 0 mm 1 m/S 769 mmHg 82%
    07:00 +7°C° 0 mm 1 m/S 769 mmHg 80%
    08:00 +7°C° 0 mm 1 m/S 769 mmHg 78%
    09:00 +8°C° 0 mm 1 m/S 769 mmHg 76%
    10:00 +8°C° 0 mm 1 m/S 769 mmHg 73%
    11:00 +9°C° 0 mm 1 m/S 768 mmHg 71%
    12:00 +8°C° 0 mm 2 m/S 768 mmHg 68%
    13:00 +8°C° 0 mm 2 m/S 767 mmHg 69%
    14:00 +8°C° 0 mm 2 m/S 767 mmHg 69%
    15:00 +9°C° 0 mm 1 m/S 767 mmHg 70%
    16:00 +9°C° 0 mm 1 m/S 767 mmHg 73%
    17:00 +9°C° 0 mm 1 m/S 767 mmHg 76%
    18:00 +8°C° 0 mm 1 m/S 767 mmHg 80%
    19:00 +8°C° 0.1 mm 1 m/S 768 mmHg 81%
    20:00 +8°C° 0.1 mm 1 m/S 768 mmHg 82%
    21:00 +8°C° 0.1 mm 1 m/S 768 mmHg 83%
    22:00 +8°C° 0.3 mm 1 m/S 767 mmHg 84%
    23:00 +8°C° 0.3 mm 1 m/S 767 mmHg 86%

    18 Dezember, Dienstag

    Zeit Temperatur Niederschläge Wind Luftdruck Luftfeuchtigkeit
    00:00 +7°C° 0.3 mm 2 m/S 767 mmHg 87%
    01:00 +6°C° 0.5 mm 2 m/S 767 mmHg 87%
    02:00 +6°C° 0.5 mm 2 m/S 767 mmHg 87%
    03:00 +6°C° 0.5 mm 2 m/S 766 mmHg 87%
    04:00 +6°C° 0.3 mm 2 m/S 766 mmHg 86%
    05:00 +6°C° 0.3 mm 2 m/S 766 mmHg 86%
    06:00 +6°C° 0.3 mm 2 m/S 766 mmHg 86%
    07:00 +6°C° 0.4 mm 2 m/S 767 mmHg 85%
    08:00 +6°C° 0.4 mm 2 m/S 767 mmHg 85%
    09:00 +6°C° 0.4 mm 2 m/S 767 mmHg 84%
    10:00 +7°C° 0.4 mm 2 m/S 767 mmHg 83%
    11:00 +7°C° 0.4 mm 2 m/S 766 mmHg 83%
    12:00 +7°C° 0.4 mm 2 m/S 766 mmHg 83%
    13:00 +7°C° 0.2 mm 2 m/S 766 mmHg 82%
    14:00 +7°C° 0.2 mm 2 m/S 766 mmHg 82%
    15:00 +8°C° 0.2 mm 1 m/S 766 mmHg 82%
    16:00 +7°C° 0.2 mm 1 m/S 767 mmHg 84%
    17:00 +7°C° 0.2 mm 1 m/S 767 mmHg 86%
    18:00 +7°C° 0.2 mm 1 m/S 768 mmHg 88%
    19:00 +7°C° 0.2 mm 1 m/S 768 mmHg 88%
    20:00 +7°C° 0.2 mm 1 m/S 768 mmHg 89%
    21:00 +7°C° 0.2 mm 1 m/S 768 mmHg 89%
    22:00 +7°C° 0.1 mm 1 m/S 768 mmHg 89%
    23:00 +7°C° 0.1 mm 1 m/S 768 mmHg 89%

    19 Dezember, Mittwoch

    Zeit Temperatur Niederschläge Wind Luftdruck Luftfeuchtigkeit
    00:00 +7°C° 0.1 mm 1 m/S 768 mmHg 88%
    01:00 +6°C° 0 mm 1 m/S 768 mmHg 89%
    02:00 +6°C° 0 mm 1 m/S 769 mmHg 89%
    03:00 +6°C° 0 mm 1 m/S 769 mmHg 90%
    04:00 +6°C° 0 mm 1 m/S 769 mmHg 90%
    05:00 +5°C° 0 mm 0 m/S 769 mmHg 90%
    06:00 +5°C° 0 mm 0 m/S 769 mmHg 91%
    07:00 +5°C° 0 mm 0 m/S 769 mmHg 88%
    08:00 +6°C° 0 mm 1 m/S 770 mmHg 86%
    09:00 +7°C° 0 mm 1 m/S 770 mmHg 84%
    10:00 +8°C° 0 mm 1 m/S 769 mmHg 80%
    11:00 +8°C° 0 mm 1 m/S 769 mmHg 76%
    12:00 +9°C° 0 mm 1 m/S 769 mmHg 72%
    13:00 +9°C° 0 mm 1 m/S 769 mmHg 71%
    14:00 +9°C° 0 mm 1 m/S 769 mmHg 70%
    15:00 +9°C° 0 mm 1 m/S 769 mmHg 69%
    16:00 +9°C° 0 mm 1 m/S 769 mmHg 73%
    17:00 +8°C° 0 mm 1 m/S 769 mmHg 77%
    18:00 +6°C° 0 mm 0 m/S 770 mmHg 80%
    19:00 +7°C° 0 mm 1 m/S 770 mmHg 82%
    20:00 +7°C° 0 mm 1 m/S 770 mmHg 83%
    21:00 +7°C° 0 mm 1 m/S 770 mmHg 84%
    22:00 +7°C° 0 mm 1 m/S 770 mmHg 84%
    23:00 +6°C° 0 mm 1 m/S 770 mmHg 85%
    Mehr zeigen